This is the latest recevied weather packets stored in our database for station/object KE0PRS. If no packets are shown the sender has not sent any weather packets the latest 1 day(s).
| Time | Temp. | Humidity | Pressure | Rain* | Wind** | Luminosity | Snow |
|---|---|---|---|---|---|---|---|
| 1778037085 | 6.67° C | 83% | 1015.7 hPa | 0 mm | 0 m/s | 0 W/m² | - |
| 1778036784 | 6.67° C | 83% | 1015.8 hPa | 0 mm | 0.89 m/s, 88° | 0 W/m² | - |
| 1778036480 | 6.67° C | 83% | 1015.9 hPa | 0 mm | 0.45 m/s, 85° | 0 W/m² | - |
| 1778036177 | 6.67° C | 83% | 1015.8 hPa | 0 mm | 0.45 m/s, 117° | 0 W/m² | - |
| 1778035873 | 6.67° C | 82% | 1015.9 hPa | 0 mm | 2.24 m/s, 69° | 0 W/m² | - |
| 1778035571 | 6.67° C | 81% | 1015.5 hPa | 0 mm | 0.89 m/s, 20° | 0 W/m² | - |
| 1778035267 | 6.67° C | 80% | 1015.7 hPa | 0 mm | 0.45 m/s, 18° | 0 W/m² | - |
| 1778034963 | 6.67° C | 80% | 1015.6 hPa | 0 mm | 0.89 m/s, 129° | 0 W/m² | - |
| 1778034661 | 6.67° C | 79% | 1015.6 hPa | 0 mm | 0.89 m/s, 109° | 0 W/m² | - |
| 1778034358 | 6.67° C | 79% | 1015.7 hPa | 0 mm | 1.79 m/s, 359° | 0 W/m² | - |
| 1778034055 | 6.67° C | 79% | 1015.2 hPa | 0 mm | 1.34 m/s, 342° | 0 W/m² | - |
| 1778033753 | 6.67° C | 78% | 1015.1 hPa | 0 mm | 0.89 m/s, 166° | 0 W/m² | - |
| 1778033450 | 6.67° C | 78% | 1015.3 hPa | 0 mm | 0.89 m/s, 240° | 0 W/m² | - |
| 1778033147 | 6.67° C | 78% | 1015.1 hPa | 0 mm | 0.89 m/s, 128° | 0 W/m² | - |
| 1778032844 | 6.67° C | 77% | 1015 hPa | 0 mm | 1.34 m/s, 33° | 0 W/m² | - |
| 1778032542 | 6.67° C | 77% | 1015 hPa | 0 mm | 1.34 m/s, 53° | 0 W/m² | - |
| 1778032239 | 6.67° C | 78% | 1014.8 hPa | 0 mm | 0.89 m/s, 145° | 0 W/m² | - |
| 1778031936 | 6.67° C | 78% | 1014.6 hPa | 0 mm | 1.34 m/s, 1° | 0 W/m² | - |
| 1778031632 | 7.22° C | 78% | 1014.7 hPa | 0 mm | 0.89 m/s, 140° | 0 W/m² | - |
| 1778031330 | 7.22° C | 76% | 1014.7 hPa | 0 mm | 1.79 m/s, 113° | 1 W/m² | - |
| 1778031027 | 7.22° C | 75% | 1014.6 hPa | 0 mm | 0.45 m/s, 344° | 1 W/m² | - |
| 1778030723 | 7.78° C | 74% | 1014.8 hPa | 0 mm | 1.34 m/s, 87° | 2 W/m² | - |
| 1778030420 | 7.78° C | 73% | 1014.6 hPa | 0 mm | 2.24 m/s, 41° | 4 W/m² | - |
| 1778030128 | 7.78° C | 72% | 1014.7 hPa | 0 mm | 0.89 m/s, 36° | 5 W/m² | - |
| 1778029814 | 7.78° C | 71% | 1014.9 hPa | 0 mm | 1.34 m/s, 351° | 6 W/m² | - |
* Rain latest hour (hover to see other rain measurements)
** Current wind speed in m/s (hover to see current wind gust speed)